Weather History for Quakertown, PA

Change the Weather History Date:

Monday, July 30, 2012

  Actual Average (KABE) Record (KABE)
Temperature  
Mean Temperature 75 °F 73 °F  
Max Temperature 84 °F 84 °F 97 °F (1940)
Min Temperature 66 °F 63 °F 50 °F (1968)
Degree Days  
Heating Degree Days 0 0  
Month to date heating degree days 0  
Since 1 June heating degree days 33  
Since 1 July heating degree days 0  
Cooling Degree Days 10 8  
Month to date cooling degree days 260  
Year to date cooling degree days 460  
Since 1 June cooling degree days 415  
Growing Degree Days 25 (Base 50)    
Moisture  
Dew Point 68 °F    
Average Humidity 76    
Maximum Humidity 100    
Minimum Humidity 51    
Precipitation  
Precipitation 0.19 in 0.16 in 2.76 in (1926)
Month to date precipitation 4.79  
Year to date precipitation 25.92  
Snow  
Snow 0.00 in 0.00 in 0.00 in (2002)
Month to date snowfall 0.0  
Since 1 June snowfall 0.0  
Since 1 July snowfall 0.0  
Snow Depth -    
Sea Level Pressure  
Sea Level Pressure 30.09 in    
Wind  
Wind Speed 2 mph (ESE)    
Max Wind Speed 9 mph    
Max Gust Speed -    
Visibility 8 miles    
Events      
T = Trace of Precipitation, MM = Missing Value Source: NWS Daily Summary

Daily Weather History Graph

Daily Weather History Graph

Search for Another Location

Airport:

Trip Planner

Search our weather history database for the weather conditions in past years. The results will help you decide how hot, cold, wet, or windy it might be!

Date:

Astronomy

Jul. 30, 2012 Rise Set
Actual Time 5:57 AM EDT 8:17 PM EDT
Civil Twilight 5:26 AM EDT 8:48 PM EDT
Nautical Twilight 4:48 AM EDT 9:26 PM EDT
Astronomical Twilight 4:06 AM EDT 10:08 PM EDT
Moon 6:17 PM EDT (7/30) 3:09 AM EDT (7/30)
Length of Visible Light 15h 21m
Length of Day
14h 20m
Waxing Gibbous, 92% of the Moon is Illuminated
Jul 30
Waxing Gibbous
Aug 1
Full
Aug 9
Last Quarter
Aug 17
New
Aug 24
First Quarter

Hourly Weather History & Observations

Time (EDT) Temp. Heat Index Dew Point Humidity Pressure Visibility Wind Dir Wind Speed Gust Speed Precip Events Conditions
12:15 AM 68.0 °F - - N/A% 30.07 in 10.0 mi Calm Calm - N/A   Mostly Cloudy
12:35 AM 68.0 °F - - N/A% 30.07 in 10.0 mi Calm Calm - N/A   Mostly Cloudy
12:55 AM 68.0 °F - - N/A% 30.07 in 10.0 mi Calm Calm - N/A   Scattered Clouds
1:15 AM 66.2 °F - - N/A% 30.07 in 10.0 mi Calm Calm - N/A   Clear
1:35 AM 68.0 °F - - N/A% 30.07 in 10.0 mi Calm Calm - N/A   Mostly Cloudy
1:55 AM 68.0 °F - - N/A% 30.07 in 10.0 mi Calm Calm - N/A   Overcast
2:15 AM 68.0 °F - - N/A% 30.07 in 10.0 mi Calm Calm - N/A   Overcast
2:35 AM 68.0 °F - - N/A% 30.07 in 10.0 mi Calm Calm - N/A   Mostly Cloudy
2:55 AM 66.2 °F - - N/A% 30.07 in 10.0 mi Calm Calm - N/A   Scattered Clouds
3:15 AM 66.2 °F - - N/A% 30.07 in 9.0 mi Calm Calm - N/A   Partly Cloudy
3:35 AM 66.2 °F - - N/A% 30.07 in 9.0 mi Calm Calm - N/A   Partly Cloudy
3:55 AM 66.2 °F - - N/A% 30.06 in 7.0 mi Calm Calm - N/A   Clear
4:15 AM 66.2 °F - - N/A% 30.06 in 6.0 mi Calm Calm - N/A   Clear
4:35 AM 66.2 °F - - N/A% 30.07 in 4.0 mi Calm Calm - N/A   Scattered Clouds
4:55 AM 66.2 °F - - N/A% 30.08 in 0.2 mi Calm Calm - N/A   Overcast
5:15 AM 66.2 °F - - N/A% 30.08 in 0.2 mi Calm Calm - N/A   Overcast
5:35 AM 66.2 °F - - N/A% 30.09 in 0.2 mi Calm Calm - N/A   Overcast
5:55 AM 66.2 °F - - N/A% 30.09 in 0.5 mi Calm Calm - N/A   Overcast
6:15 AM 66.2 °F - - N/A% 30.10 in 0.8 mi Calm Calm - N/A   Overcast
6:35 AM 66.2 °F - - N/A% 30.10 in 2.5 mi Calm Calm - N/A   Overcast
6:55 AM 68.0 °F - - N/A% 30.11 in 4.0 mi Calm Calm - N/A   Overcast
7:15 AM 68.0 °F - - N/A% 30.11 in 4.0 mi Calm Calm - N/A   Overcast
7:35 AM 68.0 °F - - N/A% 30.12 in 5.0 mi Calm Calm - N/A   Overcast
7:55 AM 68.0 °F - - N/A% 30.12 in 8.0 mi Calm Calm - N/A   Overcast
8:15 AM 69.8 °F - - N/A% 30.13 in 9.0 mi ESE 4.6 mph - N/A   Overcast
8:35 AM 69.8 °F - 69.8 °F 100% 30.13 in 8.0 mi ESE 5.8 mph - N/A   Overcast
8:55 AM 71.6 °F - 71.6 °F 100% 30.13 in 10.0 mi ESE 4.6 mph - N/A   Unknown
9:15 AM 71.6 °F - 71.6 °F 100% 30.13 in 10.0 mi SE 4.6 mph - N/A   Overcast
9:35 AM 71.6 °F - 71.6 °F 100% 30.13 in 10.0 mi Calm Calm - N/A   Overcast
9:55 AM 73.4 °F - 71.6 °F 94% 30.13 in 10.0 mi SSE 3.5 mph - N/A   Unknown
10:15 AM 75.2 °F - 71.6 °F 89% 30.13 in 10.0 mi SE 8.1 mph - N/A   Overcast
10:35 AM 77.0 °F - 69.8 °F 78% 30.13 in 10.0 mi ESE 6.9 mph - N/A   Scattered Clouds
10:55 AM 75.2 °F - 69.8 °F 83% 30.13 in 10.0 mi Calm Calm - N/A   Scattered Clouds
11:15 AM 78.8 °F - 68.0 °F 69% 30.12 in 10.0 mi East 6.9 mph - N/A   Mostly Cloudy
11:35 AM 77.0 °F - 68.0 °F 74% 30.12 in 10.0 mi ESE 5.8 mph - N/A   Mostly Cloudy
11:55 AM 78.8 °F - 68.0 °F 69% 30.12 in 10.0 mi ESE 6.9 mph - N/A   Mostly Cloudy
12:15 PM 80.6 °F 83.2 °F 68.0 °F 65% 30.12 in 10.0 mi ESE 6.9 mph - N/A   Mostly Cloudy
12:35 PM 80.6 °F 83.2 °F 68.0 °F 65% 30.12 in 10.0 mi East 6.9 mph - N/A   Scattered Clouds
12:55 PM 80.6 °F 83.2 °F 68.0 °F 65% 30.12 in 10.0 mi SE 5.8 mph - N/A   Mostly Cloudy
1:15 PM 80.6 °F 83.2 °F 68.0 °F 65% 30.11 in 10.0 mi SE 6.9 mph - N/A   Overcast
1:35 PM 80.6 °F 82.7 °F 66.2 °F 61% 30.11 in 10.0 mi East 8.1 mph - N/A   Mostly Cloudy
1:55 PM 82.4 °F 83.9 °F 64.4 °F 54% 30.10 in 10.0 mi ESE 6.9 mph - N/A   Mostly Cloudy
2:15 PM 82.4 °F 83.9 °F 64.4 °F 54% 30.10 in 10.0 mi ESE 6.9 mph - N/A   Scattered Clouds
2:35 PM 82.4 °F 83.9 °F 64.4 °F 54% 30.09 in 10.0 mi ESE 6.9 mph - N/A   Partly Cloudy
2:55 PM 82.4 °F 83.4 °F 62.6 °F 51% 30.08 in 10.0 mi SE 3.5 mph - N/A   Partly Cloudy
3:15 PM 82.4 °F 83.4 °F 62.6 °F 51% 30.07 in 10.0 mi ESE 6.9 mph - N/A   Scattered Clouds
3:35 PM 84.2 °F 85.6 °F 64.4 °F 51% 30.07 in 10.0 mi SE 3.5 mph - N/A   Scattered Clouds
3:55 PM 82.4 °F 83.4 °F 62.6 °F 51% 30.07 in 10.0 mi SSE 3.5 mph - N/A   Partly Cloudy
4:15 PM 82.4 °F 83.9 °F 64.4 °F 54% 30.07 in 10.0 mi Calm Calm - N/A   Scattered Clouds
4:35 PM 82.4 °F 83.9 °F 64.4 °F 54% 30.06 in 10.0 mi East 4.6 mph - N/A   Scattered Clouds
4:55 PM 82.4 °F 83.9 °F 64.4 °F 54% 30.06 in 10.0 mi ESE 4.6 mph - N/A   Partly Cloudy
5:15 PM 84.2 °F 85.6 °F 64.4 °F 51% 30.06 in 10.0 mi ESE 5.8 mph - N/A   Scattered Clouds
5:35 PM 82.4 °F 83.9 °F 64.4 °F 54% 30.06 in 10.0 mi SE 5.8 mph - N/A   Scattered Clouds
5:55 PM 82.4 °F 83.9 °F 64.4 °F 54% 30.06 in 10.0 mi ESE 6.9 mph - N/A   Mostly Cloudy
6:15 PM 80.6 °F 82.7 °F 66.2 °F 61% 30.06 in 10.0 mi SE 8.1 mph - N/A   Mostly Cloudy
6:35 PM 80.6 °F 82.7 °F 66.2 °F 61% 30.06 in 10.0 mi ESE 8.1 mph - N/A   Mostly Cloudy
6:55 PM 78.8 °F - 68.0 °F 69% 30.07 in 10.0 mi ESE 9.2 mph - N/A   Mostly Cloudy
7:15 PM 77.0 °F - 68.0 °F 74% 30.07 in 10.0 mi ESE 6.9 mph - N/A   Mostly Cloudy
7:35 PM 75.2 °F - 73.4 °F 94% 30.08 in 2.5 mi SSE 4.6 mph - 0.02 in   Overcast
7:55 PM 71.6 °F - 71.6 °F 100% 30.07 in 2.5 mi Calm Calm - 0.17 in   Overcast
8:15 PM 73.4 °F - 73.4 °F 100% 30.08 in 5.0 mi Calm Calm - N/A   Overcast
8:35 PM 73.4 °F - 73.4 °F 100% 30.08 in 7.0 mi Calm Calm - 0.02 in   Overcast
8:55 PM 71.6 °F - 71.6 °F 100% 30.08 in 10.0 mi ESE 4.6 mph - 0.02 in   Overcast
9:15 PM 71.6 °F - 71.6 °F 100% 30.08 in 10.0 mi Calm Calm - N/A   Mostly Cloudy
9:35 PM 71.6 °F - 71.6 °F 100% 30.09 in 10.0 mi Calm Calm - N/A   Mostly Cloudy
9:55 PM 69.8 °F - 69.8 °F 100% 30.10 in 10.0 mi Calm Calm - N/A   Scattered Clouds
10:15 PM 69.8 °F - 69.8 °F 100% 30.10 in 10.0 mi Calm Calm - N/A   Mostly Cloudy
10:35 PM 69.8 °F - 69.8 °F 100% 30.10 in 10.0 mi Calm Calm - N/A   Overcast
10:55 PM 69.8 °F - 69.8 °F 100% 30.09 in 10.0 mi Calm Calm - N/A   Scattered Clouds
11:15 PM 68.0 °F - 68.0 °F 100% 30.09 in 10.0 mi Calm Calm - N/A   Clear
11:35 PM 68.0 °F - - N/A% 30.10 in 10.0 mi Calm Calm - N/A   Clear
11:55 PM 68.0 °F - - N/A% 30.10 in 10.0 mi Calm Calm - N/A   Clear